Cataratas International Airport
SBFI : rendu visible

Aérodrome :











RETROUVEZ-NOUS SUR...

 
LOGIN :

S'inscrire | Disclaimer

   EN    FR    IT 

 









Légende :    VFR   VFR Marginal   IFR   IFR Intensif   IFR Très Intensif
Visi : 
Plafond : 
>= 8 km
>= 3000ft
5 à 8 km
1000 à 3000 ft
1500m à 5 km
500 à 1000 ft
800 à 1500m
200 à 500 ft
< 800m
< 200 ft
Symboles :   Orages  Brouillard  Fortes neiges  Fortes précipitations  Vent > 20 kt






- Altitude de l'aérodrome : 786 ft
- Code IATA : IGU


SBFI - Cataratas International

DERNIER METAR :
  • 242000Z 28003KT CAVOK 33/11 Q1014

METARs EXPIRÉS :
  • 241900Z 32007KT CAVOK 33/09 Q1014
  • 241800Z 32008KT CAVOK 32/10 Q1015

TAF TAF SBFI
Valide du 24 à 18h jusqu'au 25 à 18h UTC


241500Z 2418/2518 09006KT CAVOK TN20/2505Z TX34/2516Z
BECMG 2512/2514 02008KT RMK PEG
FIR SBCW / Amérique du Sud



MET'MAP, la Météo Aéronautique d'un coup d'oeil ! - Copyright ORBIFLY Décembre 2007 - Disclaimer

ORBIFLY MET'MAP TEAM :

Programmation & Développement : Alexandra Zaïnal
Sur une idée originale de : Baudouin d'Aumeries
Assistance à la programmation : Marc-Olivier Méhu
Soutien technique & logistique : Manuel Goepfert

Contact : metmap@orbifly.com




SOURCES & CREDITS :

   NOAA       Earth
Advisory